Waarnemingen

Advertentie
Mijn weer
Girona/Costa Brava, Spanje (8184): temperatuur & dauwpunt: 19.02.2018 10:00:00 - 25.02.2018 10:00:00 (CET)Girona/Costa Brava, Spanje (8184): windsnelheid: 19.02.2018 10:00:00 - 25.02.2018 10:00:00 (CET)Girona/Costa Brava, Spanje (8184): windrichting: 19.02.2018 10:00:00 - 25.02.2018 10:00:00 (CET)Girona/Costa Brava, Spanje (8184): luchtdruk: 19.02.2018 10:00:00 - 25.02.2018 10:00:00 (CET)Girona/Costa Brava, Spanje (8184): zicht: 19.02.2018 10:00:00 - 25.02.2018 10:00:00 (CET)
Datum & Tijd tt [°C] td [°C] ff [km/u] ff [kn] dd ppp [hPa] vv [km]
25.02.2018 10:00:00 8,6 4,1 0 0 N 1008,9 20
25.02.2018 09:00:00 6,1 4,3 4 2 WNW 1008,9 -
25.02.2018 08:00:00 4,9 3,4 2 1 OZO 1008,6 -
25.02.2018 07:00:00 4,9 3,6 4 2 ZW 1008,6 8
25.02.2018 06:00:00 4,8 3,3 4 2 W 1008,9 -
25.02.2018 05:00:00 4,7 3,2 2 1 W 1009,0 -
25.02.2018 04:00:00 4,7 3,0 2 1 NNW 1009,2 -
25.02.2018 03:00:00 5,0 3,2 0 0 N 1009,6 -
25.02.2018 02:00:00 4,9 3,2 4 2 Z 1009,7 -
25.02.2018 01:00:00 4,9 3,2 4 2 ZZW 1009,6 -
25.02.2018 00:00:00 5,0 2,7 2 1 ZW 1009,7 -
24.02.2018 23:00:00 4,9 2,8 4 2 NO 1009,7 -
24.02.2018 22:00:00 5,3 2,3 0 0 N 1009,6 9
24.02.2018 21:00:00 6,1 2,4 4 2 NW 1009,2 -
24.02.2018 20:00:00 6,7 2,1 4 2 ONO 1009,2 -
24.02.2018 19:00:00 7,3 2,7 4 2 ONO 1008,7 10
24.02.2018 18:00:00 8,4 3,0 9 5 OZO 1008,1 -
24.02.2018 17:00:00 9,4 3,3 15 8 ZO 1007,4 -
24.02.2018 16:00:00 11,0 3,6 18 10 ZO 1007,1 -
24.02.2018 15:00:00 12,4 2,2 9 5 ZZO 1006,4 -
24.02.2018 14:00:00 12,5 1,7 11 6 Z 1006,6 -
24.02.2018 13:00:00 11,7 1,0 5 3 ZZW 1007,3 12
24.02.2018 12:00:00 10,3 1,2 5 3 Z 1007,8 -
24.02.2018 11:00:00 7,6 1,1 2 1 O 1008,0 -
24.02.2018 10:00:00 4,5 1,3 2 1 Z 1008,0 8
24.02.2018 09:00:00 -0,1 -1,1 0 0 N 1008,5 -
24.02.2018 08:00:00 -3,0 -3,4 0 0 N 1008,3 -
24.02.2018 07:00:00 -3,5 -4,2 0 0 N 1007,9 3,0
24.02.2018 06:00:00 -3,2 -3,7 4 2 O 1007,7 -
24.02.2018 05:00:00 -2,3 -3,1 0 0 N 1007,6 -
24.02.2018 04:00:00 -2,0 -2,6 0 0 N 1007,7 -
24.02.2018 03:00:00 -1,3 -1,9 2 1 NW 1007,6 -
24.02.2018 02:00:00 -1,0 -1,6 0 0 N 1007,8 -
24.02.2018 01:00:00 -1,0 -2,0 4 2 NNO 1007,6 -
24.02.2018 00:00:00 0,3 -0,7 0 0 N 1007,4 -
23.02.2018 23:00:00 0,7 -0,5 0 0 N 1007,4 -
23.02.2018 22:00:00 1,6 -0,3 0 0 N 1007,7 5
23.02.2018 21:00:00 2,8 -0,1 0 0 N 1007,5 -
23.02.2018 20:00:00 4,2 0,7 4 2 ZZW 1007,2 -
23.02.2018 19:00:00 5,1 0,9 2 1 Z 1006,8 8
23.02.2018 18:00:00 6,8 1,6 16 9 ZZW 1006,3 -
23.02.2018 17:00:00 8,4 1,6 21 11 Z 1005,8 -
23.02.2018 16:00:00 10,5 0,6 15 8 Z 1005,2 18
23.02.2018 15:00:00 11,4 -4,7 4 2 WZW 1005,2 -
23.02.2018 14:00:00 10,8 -2,3 5 3 ZZO 1005,5 -
23.02.2018 13:00:00 9,8 -0,8 0 0 N 1006,1 18
23.02.2018 12:00:00 8,4 -0,2 4 2 Z 1006,9 -
23.02.2018 11:00:00 6,7 -1,5 0 0 N 1006,8 -
23.02.2018 10:00:00 3,4 -0,5 4 2 NNO 1007,1 10
23.02.2018 09:00:00 1,3 -0,2 0 0 N 1007,2 -
23.02.2018 08:00:00 1,8 -1,1 0 0 N 1006,6 -
23.02.2018 07:00:00 1,7 -0,7 0 0 N 1006,4 7
23.02.2018 06:00:00 1,9 -1,1 4 2 N 1006,1 -
23.02.2018 05:00:00 2,7 0,6 2 1 N 1006,0 -
23.02.2018 04:00:00 3,0 0,9 4 2 NNW 1006,0 35
23.02.2018 03:00:00 2,9 0,9 4 2 NNO 1006,3 -
23.02.2018 02:00:00 3,3 0,0 2 1 NNW 1006,9 -
23.02.2018 01:00:00 3,3 -0,8 4 2 NW 1007,3 35
23.02.2018 00:00:00 3,5 -1,0 4 2 NW 1007,3 -
22.02.2018 23:00:00 3,6 -2,0 4 2 NNW 1007,3 -
22.02.2018 22:00:00 4,1 -3,3 2 1 N 1007,3 25
22.02.2018 21:00:00 4,0 -3,1 9 5 NO 1007,0 -
22.02.2018 20:00:00 4,2 -2,3 11 6 NO 1006,9 -
22.02.2018 19:00:00 4,4 -2,3 18 10 ONO 1006,5 -
22.02.2018 18:00:00 5,2 -1,9 24 13 ONO 1005,8 -
22.02.2018 17:00:00 6,6 -1,5 24 13 ONO 1005,3 -
22.02.2018 16:00:00 7,8 -2,8 22 12 ONO 1004,9 -
22.02.2018 15:00:00 9,3 -2,3 16 9 ONO 1004,9 -
22.02.2018 14:00:00 10,8 -3,3 4 2 OZO 1005,0 -
22.02.2018 13:00:00 10,0 -2,6 0 0 N 1005,5 30
22.02.2018 12:00:00 8,0 -2,2 8 4 NO 1006,1 -
22.02.2018 11:00:00 6,8 -1,9 5 3 ONO 1006,3 -
22.02.2018 10:00:00 4,5 -1,3 4 2 NNO 1006,4 30
22.02.2018 09:00:00 0,9 -1,5 0 0 N 1006,9 -
22.02.2018 08:00:00 -3,1 -3,9 2 1 NNO 1006,8 -
22.02.2018 07:00:00 -3,0 -4,2 0 0 N 1006,7 30
22.02.2018 06:00:00 -2,8 -3,9 0 0 N 1006,7 -
22.02.2018 05:00:00 -2,6 -3,7 0 0 N 1006,9 -
22.02.2018 04:00:00 -1,0 -3,1 0 0 N 1007,2 30
22.02.2018 03:00:00 -1,0 -2,7 8 4 WNW 1007,5 -
22.02.2018 02:00:00 0,0 -3,0 0 0 N 1007,7 -
22.02.2018 01:00:00 -0,5 -2,8 4 2 NNO 1007,9 30
22.02.2018 00:00:00 0,2 -2,5 4 2 WNW 1007,9 -
21.02.2018 23:00:00 0,7 -2,5 5 3 ZW 1008,4 -
21.02.2018 22:00:00 2,8 -2,5 9 5 NW 1008,2 30
21.02.2018 21:00:00 4,7 -2,5 21 11 NO 1007,9 -
21.02.2018 20:00:00 5,4 -2,2 29 16 NO 1007,8 -
21.02.2018 19:00:00 6,3 -2,5 35 19 NO 1007,1 30
21.02.2018 18:00:00 7,6 -2,2 28 15 NO 1006,9 -
21.02.2018 17:00:00 9,9 -3,3 28 15 NO 1006,7 -
21.02.2018 16:00:00 10,9 -4,1 31 17 NO 1006,7 40
21.02.2018 15:00:00 11,0 -3,2 35 19 NO 1006,5 -
21.02.2018 14:00:00 10,6 -3,3 41 22 NNO 1007,7 -
21.02.2018 13:00:00 10,5 -4,2 44 24 NO 1007,4 40
21.02.2018 12:00:00 11,4 -6,9 37 20 NO 1007,4 -
21.02.2018 11:00:00 10,8 -7,9 24 13 N 1007,1 -
21.02.2018 10:00:00 8,8 -5,8 26 14 NNO 1007,3 30
21.02.2018 09:00:00 8,7 -1,9 16 9 N 1007,1 -
21.02.2018 08:00:00 7,7 2,7 26 14 NNO 1007,1 -
21.02.2018 07:00:00 7,9 3,9 29 16 NNO 1006,7 12
21.02.2018 06:00:00 7,8 4,6 22 12 NNO 1006,7 -
21.02.2018 05:00:00 7,8 5,3 18 10 NO 1006,9 -
21.02.2018 04:00:00 7,5 6,6 4 2 NW 1007,5 8
21.02.2018 03:00:00 7,7 7,0 9 5 NO 1008,2 -
21.02.2018 02:00:00 7,1 6,5 4 2 NO 1008,8 -
21.02.2018 01:00:00 7,3 6,6 0 0 N 1009,0 -
21.02.2018 00:00:00 7,1 6,2 4 2 W 1009,3 -
20.02.2018 23:00:00 6,9 5,7 5 3 W 1009,4 -
20.02.2018 22:00:00 8,4 6,4 2 1 W 1009,4 7
20.02.2018 21:00:00 8,7 7,1 4 2 NNW 1009,8 -
20.02.2018 20:00:00 9,2 8,0 5 3 WZW 1008,8 -
20.02.2018 19:00:00 10,0 7,4 5 3 Z 1008,6 11
20.02.2018 18:00:00 12,3 8,0 8 4 ZW 1008,0 -
20.02.2018 17:00:00 14,0 9,2 16 9 Z 1008,1 -
20.02.2018 16:00:00 16,1 7,0 4 2 W 1007,7 12
20.02.2018 15:00:00 15,1 8,2 0 0 N 1008,3 -
20.02.2018 14:00:00 13,5 8,0 0 0 N 1009,4 -
20.02.2018 13:00:00 12,2 9,1 0 0 N 1010,3 9
20.02.2018 12:00:00 11,4 9,1 0 0 N 1010,8 -
20.02.2018 11:00:00 9,9 8,7 0 0 N 1011,0 -
20.02.2018 10:00:00 8,7 8,1 2 1 ZW 1011,1 8
20.02.2018 09:00:00 7,5 7,2 4 2 WZW 1011,3 -
20.02.2018 08:00:00 7,1 6,8 4 2 W 1011,7 -
20.02.2018 07:00:00 7,3 7,2 2 1 NNO 1011,7 3,7
20.02.2018 06:00:00 7,0 6,7 4 2 NO 1011,9 -
20.02.2018 05:00:00 7,2 6,8 0 0 N 1012,1 -
20.02.2018 04:00:00 7,3 7,0 0 0 N 1012,4 4,5
20.02.2018 03:00:00 7,4 7,0 0 0 N 1013,0 -
20.02.2018 02:00:00 7,5 6,9 0 0 N 1013,4 -
20.02.2018 01:00:00 7,5 6,9 2 1 W 1013,8 9
20.02.2018 00:00:00 7,6 6,8 0 0 N 1014,3 -
19.02.2018 23:00:00 7,8 6,7 0 0 N 1014,4 -
19.02.2018 22:00:00 8,2 6,8 0 0 N 1014,9 15
19.02.2018 21:00:00 9,0 7,0 0 0 N 1014,8 -
19.02.2018 20:00:00 9,3 7,2 2 1 Z 1014,9 -
19.02.2018 19:00:00 9,6 7,4 8 4 Z 1015,0 15
19.02.2018 18:00:00 10,5 7,4 11 6 Z 1014,8 -
19.02.2018 17:00:00 12,0 7,8 16 9 ZZW 1014,7 -
19.02.2018 16:00:00 13,2 7,9 15 8 ZZW 1014,7 20
19.02.2018 15:00:00 13,6 7,5 9 5 ZZW 1014,9 -
19.02.2018 14:00:00 13,0 6,6 5 3 Z 1015,6 -
19.02.2018 13:00:00 14,2 6,5 5 3 Z 1016,4 25
19.02.2018 12:00:00 12,0 6,7 5 3 NNO 1017,1 -
19.02.2018 11:00:00 10,7 6,4 11 6 NNO 1017,3 -
19.02.2018 10:00:00 8,8 6,1 5 3 NNO 1017,8 20

tt = temperatuur
td = dauwpunt
ff = windsnelheid
dd = windrichting
ppp = luchtdruk
vv = zicht

Weerstations in de omgeving